2021-061A (49003 NORAD) Tracking and Keplerian Element Data

This shows tracking and keplerian element data for the satellite.

Feedback or suggestion? Click here.




ElementValue
Catalog49003
Name2021-061A
Epoch Orbit1282
Epoch Day269.09750458
Epoch Year2021
RAAN334.888
Inclination97.531
Eccentricity0.0011892
Argument of Perigee348.6339
Mean Anonmoly99.0515
Mean Motion15.09482969
Decay Rate1.54E-06
L11 49003U 21061A 21269.09750458 .00000154 00000-0 13543-4 0 9994
L22 49003 97.5310 334.8880 0011892 348.6339 99.0515 15.09482969 12829

Live tracking and technical data element details for 2021-061A (NORAD 49003). 2021-061A can be tracked NOW for your location showing map with azimuth and elevation plus other details from your city location.

Track the satellite on the map from your city or location and see movement details for azimuth, elevation, latitude, longitude, range, height, and movement on the map or in text.







IsCatalogInMostPopularTable: catalog: 49003, numindb: 19
Update: records affected: 1



GetName: 49003 2021-061A

Hit Count: updated at: Sun, 26 Sep 2021 15:42:04 GMT